{"data":{"norad_id":68103,"epoch":"2026-05-25T03:05:09.098592Z","epoch_age_seconds":63812,"freshness":"FRESH","line1":"1 68103U 26044C   26145.12857753  .00023295  00000+0  72151-3 0  9999","line2":"2 68103  97.2840 105.6983 0002034  93.3430 266.8045 15.33450631 13290","mean_motion":15.33450631,"eccentricity":0.0002034,"inclination_deg":97.284,"raan_deg":105.6983,"arg_perigee_deg":93.343,"mean_anomaly_deg":266.8045,"bstar":0.00072151,"rev_number":1329,"period_min":93.905859822885,"perigee_km":464.13441949539,"apogee_km":466.9184217749,"semimajor_km":6843.6634206351,"source":"CELESTRAK","updated_at":"2026-05-25T13:38:21.840959Z"}}